[[{"header":{"parameterUnit":"m.s-1","parameterCategory":1,"la1":30.2991,"la2":30.254,"lo1":-89.0895,"lo2":-89.0444,"dy":0.0017,"dx":0.0017,"nx":28,"ny":28,"refTime":"2024-07-02T09:00:00:Z","depth":0,"parameterNumber":2,"parameterNumberName":"U-component_of_WINDS"},"data":[0,0,0,0,0,0,0,0,0,0,0,0,0,0,0,0,0,0,0,0,0,0,0,0,0,0,0,0,0,0,0,0,0,0,0,0,0,0,0,0,0,0,0,0,0,0,0,0,0,0,0,0,0,0,0,0,0,0,-0.1765,-0.1764,0,-0.1682,-0.1681,-0.168,-0.163,-0.163,-0.163,-0.163,-0.1547,-0.1545,-0.1543,0,0,0,0,0,0,0,0,0,0,0,0,0,-0.1882,-0.188,-0.1765,-0.1764,-0.1763,-0.1682,-0.1681,-0.168,-0.1631,-0.163,-0.163,-0.163,-0.1547,-0.1545,-0.1543,0,0,0,0,0,0,0,0,0,0,0,0,0,-0.1818,-0.1879,-0.1765,-0.1728,-0.1724,-0.1682,-0.1681,-0.168,-0.1631,-0.163,-0.163,-0.1629,-0.1548,-0.1545,-0.1542,-0.1531,0,0,-0.1533,-0.1532,0,0,0,0,0,0,0,0,-0.1822,-0.1814,-0.1735,-0.1731,-0.1726,-0.1666,-0.1692,-0.163,-0.1631,-0.1666,-0.163,-0.1629,-0.1587,-0.1581,-0.1566,-0.1527,-0.1524,-0.1533,-0.1531,-0.153,-0.1529,0,0,0,0,0,0,0,-0.1826,-0.1817,-0.1732,-0.1733,-0.1728,-0.1717,-0.1707,-0.168,-0.163,-0.1663,-0.1659,-0.165,-0.1584,-0.1569,-0.1564,-0.1523,-0.1533,-0.153,-0.1529,-0.1527,-0.1473,-0.1473,0,0,0,0,0,0,-0.1836,-0.1821,-0.1735,-0.173,-0.1774,-0.1715,-0.1704,-0.1686,-0.163,-0.1621,-0.165,-0.1648,-0.1574,-0.1567,-0.1561,-0.1545,-0.153,-0.1527,-0.1525,-0.1472,-0.1473,-0.1473,0,0,0,0,0,0,-0.1839,-0.1829,-0.1738,-0.1774,-0.1762,-0.1713,-0.1693,-0.1684,-0.1669,-0.162,-0.1611,-0.1644,-0.1574,-0.1565,-0.1539,-0.1541,-0.1526,-0.1523,-0.1472,-0.1472,-0.1473,-0.1513,0,0,0,0,0,0,-0.1843,-0.183,-0.1825,-0.1775,-0.176,-0.1717,-0.1693,-0.1683,-0.1664,-0.166,-0.1612,-0.1603,-0.1573,-0.1544,-0.1536,-0.1537,-0.1521,-0.1471,-0.1472,-0.1473,-0.1511,-0.1515,-0.1518,0,0,0,0,0,-0.1847,-0.184,-0.1825,-0.1815,-0.1752,-0.1717,-0.1709,-0.1674,-0.1664,-0.1659,-0.1628,-0.1605,-0.1543,-0.1542,-0.1533,-0.1533,-0.1471,-0.1472,-0.1473,-0.151,-0.1514,-0.1518,0,0,0,0,0,0,-0.1892,-0.1832,-0.1815,-0.1791,-0.176,-0.1709,-0.1701,-0.1679,-0.165,-0.1648,-0.1606,-0.1595,-0.1574,-0.1551,-0.1551,-0.152,-0.1504,-0.1503,-0.1536,-0.154,-0.1543,-0.1549,-0.1518,0,0,0,0,0,-0.1899,-0.1875,-0.1824,-0.1808,-0.1793,-0.175,-0.1734,-0.1709,-0.1675,-0.1662,-0.1629,-0.1597,-0.157,-0.1554,-0.1526,-0.1508,-0.1497,-0.1504,-0.1507,-0.151,-0.151,-0.1499,-0.1502,-0.1475,-0.1475,-0.1475,0,0,-0.1913,-0.1878,-0.1865,-0.1816,-0.1789,-0.1766,-0.1739,-0.1716,-0.1699,-0.1658,-0.1632,-0.1607,-0.1569,-0.1547,-0.1536,-0.1527,-0.1515,-0.1511,-0.1513,-0.1511,-0.15,-0.1503,-0.1505,-0.1476,-0.1476,-0.1476,0,0,-0.1928,-0.1898,-0.1882,-0.1855,-0.1814,-0.1786,-0.1782,-0.1735,-0.1717,-0.169,-0.1659,-0.1639,-0.1593,-0.1568,-0.1549,-0.1556,-0.1534,-0.1548,-0.1565,-0.1556,-0.1558,-0.156,-0.1563,-0.1565,-0.1548,-0.1548,-0.1548,0,-0.1951,-0.1914,-0.1876,-0.1855,-0.1835,-0.1797,-0.1781,-0.1757,-0.171,-0.1697,-0.1688,-0.1631,-0.1603,-0.1575,-0.1577,-0.1563,-0.1558,-0.1553,-0.1561,-0.1562,-0.1563,-0.1566,-0.1567,-0.155,-0.155,-0.155,-0.1549,0,-0.1946,-0.1921,-0.1913,-0.1868,-0.1847,-0.1828,-0.1788,-0.1772,-0.175,-0.1723,-0.1697,-0.1662,-0.1627,-0.1619,-0.1597,-0.1589,-0.1585,-0.1569,-0.1552,-0.1568,-0.157,-0.1571,-0.1553,-0.1552,-0.1552,-0.1551,0,0,-0.1986,-0.192,-0.1918,-0.1898,-0.185,-0.1831,-0.1811,-0.1777,-0.1764,-0.1733,-0.1716,-0.168,-0.1665,-0.1644,-0.1619,-0.1611,-0.1619,-0.1595,-0.1594,-0.1602,-0.161,-0.1623,-0.1624,-0.1605,-0.1605,-0.1605,-0.1613,0,-0.1994,-0.1956,-0.1921,-0.1896,-0.1874,-0.1838,-0.1821,-0.1791,-0.1766,-0.1744,-0.1716,-0.1691,-0.1672,-0.166,-0.165,-0.162,-0.1621,-0.1619,-0.159,-0.1589,-0.1601,-0.1625,-0.1638,-0.1647,-0.1614,-0.1614,-0.1614,0,-0.1998,-0.1968,-0.1941,-0.1896,-0.1886,-0.1871,-0.1838,-0.1817,-0.1782,-0.1765,-0.1742,-0.1715,-0.1694,-0.1681,-0.1652,-0.1652,-0.1638,-0.1622,-0.1621,-0.1617,-0.1603,-0.1622,-0.1649,-0.1651,-0.1614,-0.1614,-0.1614,0,-0.2031,-0.1984,-0.1962,-0.1945,-0.1893,-0.1884,-0.1862,-0.1827,-0.1809,-0.178,-0.1768,-0.1738,-0.1722,-0.1699,-0.1666,-0.1659,-0.1641,-0.1624,-0.1627,-0.1628,-0.1625,-0.1625,-0.165,-0.1615,-0.1615,-0.1615,-0.1615,0,-0.2044,-0.2029,-0.1976,-0.1963,-0.1945,-0.1906,-0.189,-0.1865,-0.1835,-0.1817,-0.1784,-0.1768,-0.1725,-0.1704,-0.1679,-0.1659,-0.1652,-0.1638,-0.1631,-0.1641,-0.1643,-0.1631,-0.163,-0.1615,-0.1615,-0.1615,-0.1615,0,-0.2078,-0.2042,-0.2016,-0.1968,-0.1956,-0.1945,-0.1905,-0.1891,-0.1865,-0.1842,-0.1835,-0.1793,-0.1767,-0.1731,-0.1694,-0.1677,-0.1662,-0.1651,-0.1673,-0.1669,-0.1674,-0.1674,-0.1693,-0.1694,-0.1658,-0.1658,-0.1659,0,-0.2089,-0.2077,-0.2028,-0.2013,-0.1992,-0.1968,-0.195,-0.1912,-0.1895,-0.1855,-0.1846,-0.1818,-0.1793,-0.1753,-0.172,-0.1692,-0.168,-0.1689,-0.1676,-0.1687,-0.1682,-0.1683,-0.1682,-0.1692,-0.1693,-0.1693,-0.1694,0,-0.2113,-0.2096,-0.207,-0.2038,-0.2017,-0.1991,-0.1963,-0.1953,-0.1909,-0.1892,-0.1864,-0.1845,-0.1807,-0.178,-0.1747,-0.1726,-0.1703,-0.1698,-0.1697,-0.1707,-0.1721,-0.1715,-0.1682,-0.1698,-0.1697,-0.1697,-0.1697,-0.1697,-0.2136,-0.2123,-0.2087,-0.206,-0.2035,-0.201,-0.1995,-0.1966,-0.1943,-0.1908,-0.1888,-0.1862,-0.1829,-0.1783,-0.1763,-0.1743,-0.1734,-0.1732,-0.1732,-0.1733,-0.1736,-0.1724,-0.1737,-0.1737,-0.1736,-0.1736,-0.1736,0,-0.2159,-0.2134,-0.2109,-0.2071,-0.205,-0.2029,-0.1998,-0.1982,-0.1959,-0.193,-0.1906,-0.1876,-0.1849,-0.1814,-0.1786,-0.1776,-0.1765,-0.177,-0.1771,-0.1767,-0.1746,-0.1749,-0.178,-0.178,-0.178,-0.178,-0.178,-0.178,-0.2168,-0.2146,-0.2125,-0.2091,-0.2066,-0.204,-0.2024,-0.2001,-0.1978,-0.1945,-0.1922,-0.1899,-0.1869,-0.1837,-0.1813,-0.1803,-0.1795,-0.1803,-0.1791,-0.1772,-0.1768,-0.1764,-0.1767,-0.1801,-0.1801,-0.1813,-0.1813,-0.1813]},{"header":{"parameterUnit":"m.s-1","parameterCategory":1,"la1":30.2991,"la2":30.254,"lo1":-89.0895,"lo2":-89.0444,"dy":0.0017,"dx":0.0017,"nx":28,"ny":28,"refTime":"2024-07-02T09:00:00:Z","depth":0,"parameterNumber":3,"parameterNumberName":"V-component_of_WINDS"},"data":[0,0,0,0,0,0,0,0,0,0,0,0,0,0,0,0,0,0,0,0,0,0,0,0,0,0,0,0,0,0,0,0,0,0,0,0,0,0,0,0,0,0,0,0,0,0,0,0,0,0,0,0,0,0,0,0,0,0,4.2975,4.2975,0,4.2992,4.2992,4.2992,4.3012,4.3012,4.3013,4.3013,4.3026,4.3026,4.3027,0,0,0,0,0,0,0,0,0,0,0,0,0,4.2958,4.2958,4.2975,4.2975,4.2976,4.2992,4.2992,4.2992,4.3012,4.3012,4.3013,4.3013,4.3026,4.3026,4.3027,0,0,0,0,0,0,0,0,0,0,0,0,0,4.2969,4.2959,4.2975,4.2988,4.2989,4.2992,4.2992,4.2992,4.3012,4.3012,4.3013,4.3013,4.3026,4.3026,4.3027,4.3018,0,0,4.3027,4.3027,0,0,0,0,0,0,0,0,4.2969,4.297,4.2986,4.2987,4.2988,4.3001,4.2991,4.3001,4.3012,4.3003,4.3013,4.3014,4.3017,4.3018,4.302,4.3018,4.3019,4.3027,4.3027,4.3027,4.3027,0,0,0,0,0,0,0,4.2968,4.2969,4.2982,4.2986,4.2987,4.2992,4.2994,4.2993,4.3007,4.3004,4.3005,4.3007,4.3018,4.302,4.302,4.3019,4.3027,4.3027,4.3027,4.3027,4.3012,4.3011,0,0,0,0,0,0,4.2966,4.2968,4.2981,4.2982,4.2979,4.2991,4.2994,4.2996,4.3007,4.3009,4.3007,4.3008,4.3019,4.302,4.3021,4.3012,4.3027,4.3027,4.3027,4.3012,4.3012,4.3011,0,0,0,0,0,0,4.2965,4.2967,4.2981,4.2976,4.2978,4.2991,4.2994,4.2996,4.2998,4.301,4.3012,4.3006,4.302,4.3021,4.3019,4.3013,4.3027,4.3027,4.3013,4.3012,4.3011,4.2993,0,0,0,0,0,0,4.2965,4.2966,4.2963,4.2976,4.2978,4.2979,4.2993,4.2996,4.2999,4.3,4.301,4.3012,4.302,4.3019,4.3019,4.3013,4.3027,4.3013,4.3013,4.3012,4.2995,4.2992,4.299,0,0,0,0,0,4.2964,4.2957,4.2963,4.2965,4.2975,4.2978,4.298,4.2991,4.2998,4.2995,4.3003,4.3011,4.3013,4.3018,4.3019,4.3013,4.3014,4.3013,4.3012,4.2996,4.2993,4.299,0,0,0,0,0,0,4.2941,4.2958,4.2966,4.2962,4.2969,4.2982,4.2978,4.2987,4.2991,4.2992,4.3005,4.3007,4.3003,4.3008,4.3013,4.3005,4.3015,4.3014,4.3002,4.3,4.2998,4.2996,4.3027,0,0,0,0,0,4.2937,4.2939,4.2953,4.2948,4.2952,4.2964,4.2966,4.2975,4.2981,4.2984,4.2991,4.2996,4.2999,4.2999,4.3002,4.2996,4.2998,4.2992,4.299,4.2988,4.2987,4.2984,4.2982,4.3008,4.3008,4.3008,0,0,4.2925,4.2935,4.2935,4.2944,4.295,4.2952,4.2966,4.2967,4.2968,4.2983,4.2983,4.2988,4.2995,4.2991,4.299,4.2995,4.298,4.2986,4.2985,4.2985,4.2983,4.2981,4.2978,4.3007,4.3007,4.3007,0,0,4.2906,4.2914,4.2912,4.2918,4.2928,4.2937,4.2936,4.2948,4.2953,4.2952,4.2964,4.2965,4.2968,4.2973,4.2976,4.296,4.2969,4.2961,4.2949,4.2947,4.2944,4.2943,4.2938,4.2936,4.296,4.296,4.296,0,4.2891,4.2895,4.2909,4.2909,4.2913,4.2929,4.2927,4.2932,4.2941,4.2943,4.2949,4.2954,4.296,4.2958,4.2954,4.2956,4.2955,4.2959,4.2944,4.2942,4.2941,4.2936,4.2934,4.2959,4.2959,4.2959,4.2959,0,4.2876,4.2878,4.2875,4.2886,4.2889,4.2888,4.2902,4.2903,4.2912,4.292,4.2919,4.2927,4.2932,4.2932,4.2939,4.2931,4.2934,4.2942,4.2952,4.2937,4.2933,4.2931,4.2957,4.2958,4.2958,4.2958,0,0,4.2842,4.2862,4.286,4.2866,4.2879,4.288,4.288,4.2887,4.2888,4.2894,4.2894,4.2897,4.2905,4.2908,4.2916,4.2914,4.2903,4.2922,4.2923,4.2919,4.2894,4.2889,4.2886,4.2908,4.2908,4.2908,4.2894,0,4.2825,4.2827,4.284,4.2838,4.2841,4.2857,4.2857,4.2864,4.2872,4.2875,4.2883,4.2885,4.2895,4.2897,4.2896,4.2904,4.2898,4.2905,4.2908,4.2908,4.2906,4.2884,4.2878,4.2864,4.2892,4.2892,4.2892,0,4.2805,4.2813,4.2811,4.2825,4.2827,4.2827,4.2834,4.2837,4.2846,4.2852,4.2856,4.2866,4.2867,4.2876,4.2877,4.2882,4.2884,4.2888,4.2888,4.2888,4.2899,4.2884,4.286,4.2858,4.2889,4.289,4.289,0,4.2781,4.279,4.2791,4.2795,4.2812,4.2811,4.2818,4.2828,4.2831,4.2837,4.2839,4.2845,4.2848,4.2852,4.2863,4.2869,4.2862,4.2873,4.2867,4.2866,4.2864,4.2864,4.284,4.2865,4.2865,4.2865,4.2865,0,4.2761,4.276,4.2781,4.2781,4.278,4.2796,4.2794,4.2802,4.281,4.2812,4.2826,4.2827,4.2842,4.2844,4.2853,4.2853,4.2854,4.2858,4.286,4.2857,4.2856,4.2858,4.2859,4.2865,4.2865,4.2865,4.2865,0,4.2734,4.2748,4.275,4.2766,4.277,4.2769,4.2782,4.2783,4.2792,4.2794,4.2796,4.281,4.2814,4.2826,4.2832,4.2838,4.2835,4.2839,4.2833,4.2834,4.2828,4.2828,4.2804,4.2802,4.2828,4.2828,4.2828,0,4.272,4.2719,4.2736,4.2739,4.2746,4.275,4.2755,4.277,4.2773,4.2784,4.2784,4.2789,4.2795,4.28,4.2811,4.2816,4.282,4.2812,4.2821,4.2818,4.2821,4.2821,4.2821,4.2809,4.2809,4.2809,4.2808,0,4.2694,4.2702,4.2708,4.2717,4.2722,4.2729,4.2737,4.2738,4.2755,4.2759,4.2764,4.2768,4.2776,4.2781,4.2789,4.2795,4.2804,4.2806,4.2805,4.2801,4.2797,4.28,4.2827,4.2806,4.2806,4.2806,4.2807,4.2807,4.2673,4.2674,4.2687,4.2693,4.2702,4.2709,4.2711,4.2722,4.2727,4.2736,4.2744,4.2748,4.2758,4.2769,4.2775,4.2778,4.2783,4.2781,4.2781,4.278,4.2779,4.2797,4.2779,4.2779,4.2779,4.2779,4.2779,0,4.2648,4.2658,4.2664,4.2676,4.2681,4.2692,4.2701,4.2705,4.2709,4.2718,4.2724,4.273,4.2736,4.2747,4.2754,4.2754,4.2759,4.2756,4.2756,4.2757,4.2774,4.2774,4.2752,4.2752,4.2752,4.2752,4.2752,4.2752,4.2636,4.2639,4.2648,4.2655,4.2664,4.267,4.2675,4.2682,4.2689,4.2696,4.2702,4.271,4.272,4.2727,4.2733,4.2736,4.2738,4.2733,4.2738,4.2753,4.2756,4.2758,4.2759,4.2733,4.2733,4.2721,4.2721,4.2721]}]]